Powrót do katalogu

CS1

AktywnyŁącznośćSSO
NORAD 49261·PAYLOAD·🇺🇸 United States

Wystrzelony Sep 27, 2021 z Vandenberg Space Force Base

Loading…

Następne Przeloty (najbliższe 24 godziny)

TLE

ŚwieżeSource: Space-Track

Epoka: Sep 14, 2026, 09:39 UTC

1 49261U 21088B   26257.40248436  .00011985  00000-0  33302-3 0  9992
2 49261  97.3665 320.7865 0012779 117.4287 242.8259 15.36938966274110

Śledź CS1 w czasie rzeczywistym z AllMySat

Download on the App Store